Flag for India Weather past 2 weeks in Lucknow, Uttar Pradesh, India

Now
86 °F

Partly cloudy.


Feels Like: 102 °F
Forecast: 83 / 98 °F
Wind: No wind

Location: Lucknow / Amausi

Current Time: Jul 29, 2014 at 11:23:51 PM

Latest Report: Jul 29, 2014 at 10:00 PM


Visibility: 2 mi

Pressure: 29.56 "Hg

Humidity: 84%

Dew point: 81 °F

Location of LucknowLocation

Historic Weather in Lucknow — Graph

°F

Lucknow temperature yesterday

Maximum temperature yesterday: 91 °F (at 11:30 AM)
Minimum temperature yesterday: 81 °F (at 4:00 AM)
Average temperature yesterday: 86 °F

Past Weeks' High & Low Weather Summary

 TemperatureHumidityPressure
High102 °F (Jul 21, 12:30 PM)100% (Jul 18, 5:00 AM)29.68 "Hg (Jul 18, 5:00 AM)
Low77 °F (Jul 18, 11:30 AM)51% (Jul 27, 9:00 AM)29.36 "Hg (Jul 15, 4:30 PM)
Average86 °F83%29.49 "Hg
* Reported Jul 14 10:00 PM — Jul 29 10:00 PM, Lucknow, Weather by CustomWeather, © 2014

Note: Actual official high and low records may vary slightly from our data, if they occured in-between our weather recording intervals... More about our weather records

Advertising

Lucknow weather history for previous 24 hours

 ConditionsComfort  
Time TempWeatherWind HumidityBarometerVisibility
10:00 PM
Jul 29
86 °FPartly cloudy.No wind84%29.56 "Hg2 mi
9:00 PM86 °FPartly cloudy.2 mph79%29.53 "Hg2 mi
8:30 PM86 °FPartly cloudy.2 mph79%29.53 "Hg2 mi
8:00 PM91 °FPartly cloudy.2 mph71%29.53 "Hg2 mi
7:00 PM91 °FBroken clouds.2 mph71%29.50 "Hg3 mi
6:30 PM91 °FBroken clouds.5 mph71%29.50 "Hg3 mi
6:00 PM91 °FBroken clouds.5 mph71%29.47 "Hg3 mi
5:30 PM91 °FBroken clouds.No wind71%29.47 "Hg3 mi
5:00 PM91 °FBroken clouds.2 mph71%29.47 "Hg3 mi
4:30 PM91 °FBroken clouds.2 mph71%29.47 "Hg3 mi
4:00 PM91 °FBroken clouds.3 mph71%29.47 "Hg3 mi
3:30 PM91 °FBroken clouds.5 mph71%29.47 "Hg3 mi
3:00 PM91 °FBroken clouds.6 mph71%29.50 "Hg3 mi
2:30 PM91 °FBroken clouds.6 mph71%29.50 "Hg3 mi
2:00 PM91 °FBroken clouds.5 mph71%29.53 "Hg3 mi
1:30 PM91 °FBroken clouds.7 mph71%29.53 "Hg3 mi
1:00 PM91 °FBroken clouds.7 mph71%29.53 "Hg3 mi
12:30 PM90 °FBroken clouds.6 mph71%29.56 "Hg3 mi
12:00 PM90 °FBroken clouds.6 mph75%29.56 "Hg3 mi
11:30 AM88 °FBroken clouds.5 mph79%29.59 "Hg3 mi
11:00 AM88 °FScattered clouds.6 mph79%29.59 "Hg3 mi
10:00 AM88 °FBroken clouds.7 mph79%29.56 "Hg3 mi
9:30 AM86 °FBroken clouds.3 mph79%29.56 "Hg3 mi
9:00 AM84 °FBroken clouds.No wind84%29.56 "Hg2 mi
8:30 AM84 °FBroken clouds.No wind84%29.56 "Hg2 mi
8:00 AM82 °FBroken clouds.2 mph89%29.56 "Hg2 mi
7:30 AM82 °FBroken clouds.3 mph89%29.56 "Hg2 mi
7:00 AM81 °FBroken clouds.2 mph89%29.53 "Hg2 mi
6:30 AM81 °FBroken clouds.2 mph89%29.53 "Hg2 mi
6:00 AM79 °FBroken clouds.No wind94%29.53 "Hg2 mi
5:30 AM79 °FPartly cloudy.No wind94%29.53 "Hg2 mi
5:00 AM79 °FPartly cloudy.3 mph94%29.53 "Hg2 mi
4:00 AM79 °FThunderstorms. Partly cloudy.5 mph94%29.50 "Hg2 mi
3:00 AM79 °FThunderstorms. Partly cloudy.6 mph94%29.50 "Hg2 mi
1:00 AM82 °FThunderstorms. Partly cloudy.No wind94%29.53 "Hg2 mi
12:00 AM82 °FPartly cloudy.No wind94%29.53 "Hg2 mi
Weather by CustomWeather, © 2014

See weather overviewHow to use our weather pages